• In Latvia
  • List of Countries
  • For 7 days
  • Water Temperature
  • Satellite Maps
  • Weather Map
  • Weather Widgets
  • user-avatar
    Login

    Hourly Weather Barra

    Today, 23 January, Tuesday

    Time Temperature Precipitation Wind Pressure Humidity
    00:00 +25°C° 0.1 mm 3 mps 745 mmHg 93%
    01:00 +25°C° 0.1 mm 3 mps 744 mmHg 95%
    02:00 +25°C° 0.4 mm 3 mps 744 mmHg 95%
    03:00 +25°C° 0.4 mm 3 mps 744 mmHg 96%
    04:00 +25°C° 0 mm 3 mps 744 mmHg 97%
    05:00 +25°C° 0.4 mm 3 mps 744 mmHg 97%
    06:00 +25°C° 0.4 mm 3 mps 744 mmHg 96%
    07:00 +26°C° 0.4 mm 3 mps 744 mmHg 95%
    08:00 +26°C° 0.5 mm 3 mps 744 mmHg 93%
    09:00 +27°C° 0.5 mm 3 mps 744 mmHg 90%
    10:00 +29°C° 0 mm 4 mps 745 mmHg 84%
    11:00 +29°C° 0.9 mm 4 mps 744 mmHg 83%
    12:00 +29°C° 0.9 mm 4 mps 744 mmHg 82%
    13:00 +30°C° 0.9 mm 4 mps 744 mmHg 81%
    14:00 +29°C° 1.5 mm 3 mps 743 mmHg 84%
    15:00 +28°C° 1.5 mm 3 mps 743 mmHg 86%
    16:00 +27°C° 0 mm 3 mps 743 mmHg 92%
    17:00 +26°C° 1.8 mm 3 mps 743 mmHg 94%
    18:00 +26°C° 1.8 mm 3 mps 744 mmHg 95%
    19:00 +26°C° 1.8 mm 3 mps 744 mmHg 97%
    20:00 +25°C° 1.1 mm 3 mps 744 mmHg 97%
    21:00 +25°C° 1.1 mm 3 mps 744 mmHg 97%
    22:00 +25°C° 1.1 mm 3 mps 744 mmHg 97%
    23:00 +25°C° 0.7 mm 3 mps 744 mmHg 97%

    Tomorrow, 24 January, Wednesday

    Time Temperature Precipitation Wind Pressure Humidity
    00:00 +25°C° 0.7 mm 3 mps 744 mmHg 98%
    01:00 +25°C° 0.7 mm 3 mps 743 mmHg 98%
    02:00 +25°C° 0.5 mm 3 mps 743 mmHg 98%
    03:00 +25°C° 0.5 mm 3 mps 743 mmHg 98%
    04:00 +25°C° 0.5 mm 4 mps 742 mmHg 98%
    05:00 +25°C° 0.6 mm 4 mps 743 mmHg 97%
    06:00 +26°C° 0.6 mm 4 mps 743 mmHg 97%
    07:00 +26°C° 0.6 mm 4 mps 743 mmHg 96%
    08:00 +26°C° 0.5 mm 4 mps 743 mmHg 93%
    09:00 +27°C° 0.5 mm 4 mps 743 mmHg 90%
    10:00 +28°C° 0.5 mm 4 mps 743 mmHg 87%
    11:00 +28°C° 0.8 mm 4 mps 743 mmHg 86%
    12:00 +28°C° 0.8 mm 4 mps 742 mmHg 85%
    13:00 +28°C° 0.8 mm 4 mps 742 mmHg 84%
    14:00 +28°C° 0.5 mm 4 mps 742 mmHg 83%
    15:00 +29°C° 0.5 mm 4 mps 741 mmHg 83%
    16:00 +29°C° 0.5 mm 3 mps 741 mmHg 82%
    17:00 +28°C° 0.8 mm 3 mps 741 mmHg 86%
    18:00 +27°C° 0.8 mm 2 mps 741 mmHg 90%
    19:00 +26°C° 0.8 mm 2 mps 742 mmHg 95%
    20:00 +26°C° 0.8 mm 2 mps 742 mmHg 96%
    21:00 +26°C° 0.8 mm 1 mps 743 mmHg 96%
    22:00 +25°C° 0.8 mm 1 mps 743 mmHg 97%
    23:00 +25°C° 0.3 mm 1 mps 743 mmHg 97%

    Day after tomorrow, 25 January, Thursday

    Time Temperature Precipitation Wind Pressure Humidity
    00:00 +25°C° 0.3 mm 1 mps 742 mmHg 97%
    01:00 +25°C° 0.3 mm 1 mps 742 mmHg 96%
    02:00 +25°C° 0 mm 1 mps 742 mmHg 96%
    03:00 +25°C° 0 mm 2 mps 741 mmHg 96%
    04:00 +25°C° 0 mm 2 mps 741 mmHg 96%
    05:00 +25°C° 0 mm 2 mps 741 mmHg 94%
    06:00 +25°C° 0 mm 2 mps 741 mmHg 93%
    07:00 +26°C° 0 mm 2 mps 742 mmHg 92%
    08:00 +28°C° 0 mm 2 mps 742 mmHg 81%
    09:00 +30°C° 0 mm 2 mps 742 mmHg 71%
    10:00 +33°C° 0 mm 3 mps 742 mmHg 61%
    11:00 +34°C° 0.1 mm 3 mps 742 mmHg 60%
    12:00 +34°C° 0.1 mm 3 mps 741 mmHg 60%
    13:00 +34°C° 0.1 mm 3 mps 741 mmHg 59%
    14:00 +34°C° 0.3 mm 3 mps 740 mmHg 65%
    15:00 +33°C° 0.3 mm 3 mps 740 mmHg 70%
    16:00 +31°C° 0.3 mm 3 mps 740 mmHg 75%
    17:00 +30°C° 0.5 mm 3 mps 740 mmHg 81%
    18:00 +28°C° 0.5 mm 2 mps 741 mmHg 86%
    19:00 +27°C° 0.5 mm 2 mps 741 mmHg 92%
    20:00 +27°C° 0.4 mm 2 mps 742 mmHg 93%
    21:00 +27°C° 0.4 mm 2 mps 742 mmHg 94%
    22:00 +26°C° 0.4 mm 2 mps 743 mmHg 95%
    23:00 +26°C° 0.8 mm 2 mps 742 mmHg 96%

    26 January, Friday

    Time Temperature Precipitation Wind Pressure Humidity
    00:00 +26°C° 0.8 mm 2 mps 742 mmHg 97%
    01:00 +26°C° 0.8 mm 2 mps 741 mmHg 97%
    02:00 +26°C° 0.9 mm 3 mps 741 mmHg 97%
    03:00 +26°C° 0.9 mm 3 mps 741 mmHg 97%
    04:00 +26°C° 0.9 mm 3 mps 740 mmHg 97%
    05:00 +26°C° 1.1 mm 3 mps 741 mmHg 97%
    06:00 +26°C° 1.1 mm 3 mps 741 mmHg 97%
    07:00 +26°C° 1.1 mm 3 mps 742 mmHg 97%
    08:00 +27°C° 1.5 mm 3 mps 742 mmHg 95%
    09:00 +27°C° 1.5 mm 4 mps 742 mmHg 94%
    10:00 +28°C° 1.5 mm 4 mps 742 mmHg 93%
    11:00 +28°C° 1.3 mm 4 mps 742 mmHg 92%
    12:00 +28°C° 1.3 mm 4 mps 741 mmHg 91%
    13:00 +28°C° 1.3 mm 4 mps 741 mmHg 91%
    14:00 +28°C° 1.6 mm 4 mps 740 mmHg 90%
    15:00 +28°C° 1.6 mm 4 mps 740 mmHg 89%
    16:00 +28°C° 1.6 mm 4 mps 740 mmHg 89%
    17:00 +28°C° 1.5 mm 4 mps 740 mmHg 90%
    18:00 +27°C° 1.5 mm 4 mps 740 mmHg 92%
    19:00 +27°C° 1.5 mm 4 mps 741 mmHg 94%
    20:00 +26°C° 1.5 mm 4 mps 741 mmHg 94%
    21:00 +26°C° 1.5 mm 4 mps 742 mmHg 95%
    22:00 +26°C° 1.5 mm 4 mps 742 mmHg 96%
    23:00 +26°C° 1.2 mm 4 mps 742 mmHg 96%

    27 January, Saturday

    Time Temperature Precipitation Wind Pressure Humidity
    00:00 +26°C° 1.2 mm 4 mps 742 mmHg 96%
    01:00 +26°C° 1.2 mm 4 mps 741 mmHg 96%
    02:00 +26°C° 1 mm 4 mps 741 mmHg 96%
    03:00 +26°C° 1 mm 4 mps 740 mmHg 96%
    04:00 +26°C° 1 mm 4 mps 740 mmHg 97%
    05:00 +26°C° 1.1 mm 4 mps 740 mmHg 96%
    06:00 +26°C° 1.1 mm 4 mps 741 mmHg 96%
    07:00 +26°C° 1.1 mm 4 mps 741 mmHg 96%
    08:00 +26°C° 1.3 mm 4 mps 741 mmHg 95%
    09:00 +27°C° 1.3 mm 4 mps 742 mmHg 94%
    10:00 +27°C° 1.3 mm 4 mps 742 mmHg 93%
    11:00 +27°C° 1.2 mm 4 mps 741 mmHg 92%
    12:00 +27°C° 1.2 mm 4 mps 741 mmHg 92%
    13:00 +28°C° 1.2 mm 4 mps 740 mmHg 91%
    14:00 +27°C° 1.5 mm 5 mps 740 mmHg 92%
    15:00 +27°C° 1.5 mm 5 mps 740 mmHg 92%
    16:00 +27°C° 1.5 mm 5 mps 739 mmHg 92%
    17:00 +27°C° 1.3 mm 5 mps 740 mmHg 94%
    18:00 +26°C° 1.3 mm 5 mps 740 mmHg 95%
    19:00 +26°C° 1.3 mm 5 mps 740 mmHg 96%
    20:00 +26°C° 1.9 mm 5 mps 741 mmHg 96%
    21:00 +26°C° 1.9 mm 5 mps 741 mmHg 96%
    22:00 +26°C° 1.9 mm 5 mps 741 mmHg 96%
    23:00 +26°C° 2.3 mm 5 mps 741 mmHg 96%

    28 January, Sunday

    Time Temperature Precipitation Wind Pressure Humidity
    00:00 +26°C° 2.3 mm 5 mps 740 mmHg 96%
    01:00 +25°C° 2.3 mm 5 mps 740 mmHg 97%
    02:00 +25°C° 1.7 mm 4 mps 740 mmHg 97%
    03:00 +25°C° 1.7 mm 4 mps 739 mmHg 97%
    04:00 +25°C° 1.7 mm 4 mps 739 mmHg 97%
    05:00 +25°C° 1.5 mm 4 mps 739 mmHg 97%
    06:00 +26°C° 1.5 mm 4 mps 739 mmHg 97%
    07:00 +26°C° 1.5 mm 4 mps 739 mmHg 97%
    08:00 +26°C° 1.9 mm 4 mps 740 mmHg 96%
    09:00 +26°C° 1.9 mm 5 mps 740 mmHg 95%
    10:00 +27°C° 1.9 mm 5 mps 740 mmHg 94%
    11:00 +27°C° 2.6 mm 4 mps 739 mmHg 95%
    12:00 +27°C° 2.6 mm 4 mps 739 mmHg 95%
    13:00 +27°C° 2.6 mm 4 mps 739 mmHg 95%
    14:00 +26°C° 2.3 mm 4 mps 738 mmHg 95%
    15:00 +26°C° 2.3 mm 4 mps 738 mmHg 95%
    16:00 +26°C° 2.3 mm 4 mps 737 mmHg 95%
    17:00 +26°C° 1.6 mm 4 mps 738 mmHg 96%
    18:00 +26°C° 1.6 mm 4 mps 738 mmHg 96%
    19:00 +26°C° 1.6 mm 4 mps 738 mmHg 97%
    20:00 +26°C° 1.7 mm 5 mps 738 mmHg 97%
    21:00 +26°C° 1.7 mm 6 mps 738 mmHg 97%
    22:00 +26°C° 1.7 mm 6 mps 738 mmHg 97%
    23:00 +26°C° 3.2 mm 6 mps 738 mmHg 97%
    Show more